Regional Weather Roundup
Issued by NWS

Home | Current Version | Previous Version | Text Only | Print | Product List | Glossary Off
Versions: 1 2 3 4 5 6 7 8 9 10 11 12 13 14 15 16 17 18 19 20 21 22 23 24 25 26 27 28 29 30 31 32 33 34 35 36 37 38 39 40 41 42 43 44 45 46 47 48 49 50

000
ASUS43 KFSD 241910
RWRSD

WEATHER ROUNDUP FOR SOUTH DAKOTA
NATIONAL WEATHER SERVICE SIOUX FALLS SD
200 PM CDT THU JUL 24 2014

NOTE: "FAIR" INDICATES FEW OR NO CLOUDS BELOW 12,000 FEET WITH NO
SIGNIFICANT WEATHER AND/OR OBSTRUCTIONS TO VISIBILITY.


SDZ001>005-009-010-012>017-242000-
NORTHWEST AND NORTH CENTRAL SOUTH DAKOTA

CITY           SKY/WX    TMP DP  RH WIND       PRES   REMARKS
BUFFALO          N/A     84  67  56 S13G21    29.74F
FAITH            N/A     85  66  53 E14       29.79F
MOBRIDGE       MOSUNNY   82  66  58 SE22G29   29.77F
$$

SDZ012>016-024>037-041>051-057-063-072>074-242000-
SOUTHWEST AND SOUTH CENTRAL SOUTH DAKOTA

CITY           SKY/WX    TMP DP  RH WIND       PRES   REMARKS
RAPID CTY ARPT PTSUNNY   87  71  58 NE3       29.80F
PIERRE         MOSUNNY   93  67  42 SE22      29.74F HX  96
CUSTER         MOSUNNY   90  48  23 W12G21    30.01F
ELLSWORTH AFB  PTSUNNY   84  69  62 CALM      29.81S
PHILIP         SUNNY     97  64  33 VRB3      29.74F HX  99
PINE RIDGE     MOSUNNY   96  62  32 S10       29.83F HX  97
WINNER         FAIR      93  67  42 S26G36    29.79F HX  96
$$

SDZ004>011-016>023-039-040-242000-
NORTHEAST SOUTH DAKOTA

CITY           SKY/WX    TMP DP  RH WIND       PRES   REMARKS
ABERDEEN       LGT RAIN  72  62  71 E30G41    29.87F
WATERTOWN      TSTM      68  61  78 NE29G44   30.10R
SISSETON         N/A     64  64 100 S15       30.01F
$$

SDZ017-020-022-023-036>040-048>070-242000-
SOUTHEAST SOUTH DAKOTA

CITY           SKY/WX    TMP DP  RH WIND       PRES   REMARKS
SIOUX FALLS    CLOUDY    71  62  73 S28G38    29.93F
HURON          MOSUNNY   79  65  62 SE16G25   29.88R
CHAMBERLAIN    MOSUNNY   86  68  55 S18G24    29.81F
MITCHELL       SUNNY     81  66  60 SE22G37   29.87F
YANKTON        PTSUNNY   81  66  61 E17G23    29.96F
$$

ABBREVIATIONS USED IN REMARKS
   TC - TEMPERATURE IN CELSIUS
  WCI - WIND CHILL INDEX
   HX - HEAT INDEX
  VSB - VISIBILITY



USA.gov is the U.S. government's official web portal to all federal, state and local government web resources and services.